Regional Weather Roundup
Issued by NWS

Home | Current Version | Previous Version | Graphics & Text | Print | Product List | Glossary On
Versions: 1 2 3 4 5 6 7 8 9 10 11 12 13 14 15 16 17 18 19 20 21 22 23 24 25 26 27 28 29 30 31 32 33 34 35 36 37 38 39 40 41 42 43 44 45 46 47 48 49 50
000
ASUS43 KOAX 211410
RWRNE

WEATHER ROUNDUP FOR NEBRASKA
NATIONAL WEATHER SERVICE OMAHA NE
900 AM CDT SAT OCT 21 2017

NOTES: SATELLITE DATA IS BEING USED TO AUGMENT CLOUD COVER ABOVE
       12000 FEET.
       "FAIR" INDICATES FEW OR NO CLOUDS BELOW 12,000 FEET WITH NO
       SIGNIFICANT WEATHER AND/OR OBSTRUCTIONS TO VISIBILITY.


NEZ001>004-019>022-054>056-211500-
NEBRASKA PANHANDLE

CITY           SKY/WX    TMP DP  RH WIND       PRES   REMARKS
SCOTTSBLUFF    CLOUDY    45  22  40 W16       29.86R
ALLIANCE       CLOUDY    46  23  40 NW15G26   29.81R
CHADRON        CLOUDY    47  24  40 W20G25    29.81R
GORDON         RAIN      45  39  81 NW7       29.80R
KIMBALL        CLOUDY    42  19  40 NW28G37   29.88R
SIDNEY         CLOUDY    46  21  37 NW20G28   29.86R
$$

NEZ057>060-069>072-079>082-211500-
SOUTHWEST NEBRASKA

CITY           SKY/WX    TMP DP  RH WIND       PRES   REMARKS
NORTH PLATTE   CLOUDY    56  31  38 NW21      29.72R
IMPERIAL       CLOUDY    51  29  42 NW22G37   29.79R
LEXINGTON      CLOUDY    58  43  58 NW24G35   29.63R
MCCOOK         MOSUNNY   56  28  34 NW33G46   29.69R
OGALLALA       CLOUDY    49  33  53 NW26G35   29.82R
$$

NEZ005>010-023>029-035>040-094-211500-
NORTH CENTRAL NEBRASKA

CITY           SKY/WX    TMP DP  RH WIND       PRES   REMARKS
VALENTINE      CLOUDY    50  37  61 NW16G29   29.72R
AINSWORTH      CLOUDY    50  39  66 NW26G35   29.68R
BROKEN BOW     CLOUDY    57  44  62 NW25G32   29.63R
O`NEILL        CLOUDY    57  47  68 NW17G28   29.58R
ORD            CLOUDY    59  50  72 N20G26    29.57R
THEDFORD       CLOUDY    53  41  64 NW26G36   29.71R
$$

NEZ041-046>049-061>064-073>077-083>087-211500-
SOUTH CENTRAL NEBRASKA

CITY           SKY/WX    TMP DP  RH WIND       PRES   REMARKS
GRAND ISLAND   CLOUDY    67  62  84 S18G25    29.56R
AURORA         CLOUDY    68  61  80 S24G30    29.56R
HASTINGS       MOSUNNY   67  59  75 S18G29    29.56S
HEBRON         CLOUDY    70  63  78 S17G24    29.62S
HOLDREGE       SUNNY     58  49  73 NW17G24   29.58R
KEARNEY        CLOUDY    63  57  81 W10       29.57R
YORK           CLOUDY    68  63  83 S20G32    29.58R
$$

NEZ011>018-030>034-042>045-211500-
NORTHEAST NEBRASKA

CITY           SKY/WX    TMP DP  RH WIND       PRES   REMARKS
NORFOLK        PTSUNNY   68  62  81 S15G24    29.53S
ALBION         CLOUDY    68  62  79 S14G20    29.55R
BLAIR          CLOUDY    67  62  85 S20G25    29.64R
COLUMBUS       CLOUDY    70  62  76 S21G29    29.57S
FREMONT        CLOUDY    69  61  75 S18G24    29.61S
TEKAMAH        CLOUDY    68  61  78 S14       29.61R
WAYNE          CLOUDY    70  64  82 S16G22    29.56R
$$

NEZ050>053-065>068-078-088>093-211500-
SOUTHEAST NEBRASKA

CITY           SKY/WX    TMP DP  RH WIND       PRES   REMARKS
LINCOLN        CLOUDY    69  62  78 S22G31    29.62F
OMAHA EPPLEY   CLOUDY    69  61  75 S16       29.66R
BEATRICE       CLOUDY    69  63  81 S21G28    29.65R
FALLS CITY     CLOUDY    68  60  75 S22G33    29.71R
NEBRASKA CITY  CLOUDY    68  64  86 S23G31    29.68R
PLATTSMOUTH    CLOUDY    68  63  83 S20G29    29.66S
$$

NEZ044-045-051>053-067-211500-
OMAHA AREA

CITY           SKY/WX    TMP DP  RH WIND       PRES   REMARKS
OMAHA EPPLEY   CLOUDY    69  61  75 S16       29.66R
BLAIR          CLOUDY    67  62  85 S20G25    29.64R
FREMONT        CLOUDY    69  61  75 S18G24    29.61S
MILLARD        CLOUDY    69  63  81 S10       29.66R
OFFUTT AFB     CLOUDY    68  61  76 S16G24    29.65R
PLATTSMOUTH    CLOUDY    68  63  83 S20G29    29.66S
WAHOO          CLOUDY    70  62  75 S23G30    29.61F
$$



USA.gov is the U.S. government's official web portal to all federal, state and local government web resources and services.